Wind_Speed
35 36 38 38 36 35 37 39 43 45 44 42 42 43 44 43 43 44 44 43 41 38 35 33 31 30 29 29 31 31 28 27 27 26 26 29 30 26 22 21 21 20 20 19 16 15 13 11 11 11 6 2 2 2 2 5 7 9 10 11 11 9 5 16 28 34 41 45 43 39 39 40 40 38 36 33 30 27 27 28 29 24 21 22 25 25 22
36 37 38 38 36 35 37 38 41 44 44 42 41 41 42 43 42 41 41 43 42 40 37 33 29 27 27 27 29 31 29 26 25 25 26 27 29 27 24 22 21 20 19 19 18 16 13 12 13 10 5 1 1 3 6 6 7 10 10 8 7 6 7 18 30 38 45 46 42 41 41 39 40 37 31 27 26 25 26 25 24 23 22 22 24 24 20
37 38 38 38 37 37 37 38 40 44 44 43 42 40 41 43 42 40 39 41 42 41 38 34 30 26 24 24 27 29 28 24 23 25 26 26 27 27 24 24 24 22 18 17 17 15 13 14 13 7 3 3 4 5 5 5 5 6 7 5 5 7 13 23 35 45 48 43 38 38 37 35 38 38 34 31 28 26 23 21 23 25 24 23 22 20 19
36 38 38 39 39 38 38 37 39 43 44 43 41 40 40 41 41 41 40 40 41 41 38 35 31 27 24 23 24 26 28 25 22 23 25 26 27 27 25 25 26 24 20 16 15 14 13 12 10 8 9 9 8 6 4 3 4 5 5 5 6 10 19 28 39 47 44 33 28 29 28 27 36 45 41 32 28 27 22 18 23 28 26 24 24 22 23
36 38 38 38 40 40 38 37 38 42 43 43 41 39 39 40 41 41 41 40 40 41 40 37 33 29 27 25 23 24 28 27 23 21 23 25 26 25 25 25 25 25 22 16 13 13 11 8 10 12 13 12 9 6 4 2 5 4 3 5 9 14 22 30 38 42 38 31 29 30 26 24 36 50 44 28 24 28 28 22 23 26 23 24 29 30 28
36 38 38 39 40 40 39 37 37 40 43 43 41 40 39 39 39 40 40 40 40 39 39 38 35 31 26 24 23 23 26 29 25 21 22 24 25 24 23 24 24 25 23 16 12 11 9 11 11 11 10 9 8 7 5 3 4 3 1 8 16 20 24 31 35 35 32 31 31 31 28 27 40 51 41 24 21 26 28 26 26 25 20 21 28 31 29
37 37 38 39 40 40 40 37 36 39 41 42 41 40 39 38 38 38 39 39 39 38 37 36 34 31 25 22 23 24 26 29 27 23 21 21 23 24 23 21 20 22 21 15 11 9 10 13 12 9 8 8 7 7 7 3 3 4 8 12 16 19 24 28 29 29 29 30 30 30 29 28 38 47 37 22 19 23 24 26 28 24 18 19 24 26 25
38 37 37 40 40 39 38 37 36 38 41 41 40 39 38 37 37 38 38 39 39 37 37 36 35 33 28 24 22 23 24 26 26 24 22 20 21 24 23 21 18 18 18 15 10 8 10 12 12 9 9 9 7 8 8 3 3 6 12 12 15 19 22 22 22 24 26 27 27 29 28 25 31 43 37 21 18 23 22 23 27 22 17 19 23 24 23
38 37 37 39 40 38 37 35 35 38 40 41 40 39 38 37 35 35 36 38 39 37 36 36 35 33 30 26 22 20 21 23 24 23 22 20 21 22 23 23 18 15 16 14 8 5 7 10 11 10 8 7 6 8 8 4 3 2 7 9 14 17 20 21 21 23 26 28 27 25 24 22 28 41 38 22 20 25 23 22 23 18 15 20 25 26 25
38 37 37 39 39 38 36 34 35 38 39 40 40 39 38 37 35 34 35 37 38 37 36 35 34 33 31 27 23 19 19 21 23 22 21 20 20 21 23 22 17 13 13 12 7 3 3 6 9 10 8 5 6 7 5 3 3 3 4 7 12 12 17 21 20 21 25 30 28 23 22 22 29 40 38 26 24 25 20 20 21 19 18 20 23 24 24
38 37 37 39 40 39 37 34 35 37 38 39 39 38 38 37 35 34 34 35 36 37 37 35 33 31 30 28 24 20 18 19 21 22 21 19 17 19 20 16 12 10 10 8 5 3 2 5 7 7 7 7 5 3 2 2 2 2 2 6 12 13 17 19 17 18 23 28 28 26 25 22 24 33 35 32 30 27 23 23 23 23 23 20 17 17 18
38 36 38 39 40 39 38 36 35 36 37 38 39 38 37 37 35 34 34 34 34 35 36 35 32 30 29 27 25 21 18 17 19 21 19 17 17 18 16 11 9 9 8 6 5 3 2 3 3 5 9 7 3 1 2 2 3 2 3 9 16 17 13 14 17 19 22 27 28 28 26 20 16 22 31 36 36 32 30 29 23 22 23 19 16 17 16
37 36 38 39 40 39 38 37 36 35 36 37 38 38 37 37 35 33 33 33 32 33 34 34 32 31 29 27 25 23 19 17 17 19 18 15 16 17 15 10 8 9 8 7 5 5 5 5 4 4 6 4 3 3 3 2 5 8 7 12 17 11 4 8 17 21 22 25 25 24 23 19 16 18 25 34 39 38 39 37 28 23 25 22 20 19 17
38 37 39 39 39 39 38 37 36 35 35 35 37 37 37 37 35 33 33 33 31 32 33 32 30 30 29 27 25 22 19 17 17 18 16 14 15 16 14 10 7 7 8 7 6 7 8 8 7 5 3 3 5 5 5 2 6 8 9 13 14 7 3 10 18 20 21 22 20 19 20 20 18 17 18 26 34 40 45 44 32 22 22 24 22 18 18
39 39 40 40 39 39 38 37 36 35 34 34 36 37 37 37 35 32 32 32 31 31 32 32 30 28 28 27 24 21 18 15 15 15 14 12 13 15 12 8 7 7 6 4 5 7 9 9 9 7 6 4 3 4 8 4 3 7 10 14 13 9 8 13 17 19 20 20 17 16 19 20 19 18 16 18 24 31 40 42 33 21 17 20 22 20 19
40 40 41 40 39 38 37 37 36 35 34 34 35 37 37 36 34 31 30 31 30 29 31 33 31 29 28 27 25 21 17 13 12 12 12 10 11 13 11 8 7 7 5 4 5 7 8 8 7 6 6 5 3 5 8 8 3 6 14 16 13 11 10 13 17 19 19 19 17 15 18 20 20 19 18 16 17 22 27 31 33 28 21 20 24 23 20
41 42 41 39 39 38 37 36 37 37 35 34 35 36 35 34 33 31 30 31 30 29 30 32 31 28 27 27 25 22 19 13 9 9 10 9 9 10 9 8 8 6 4 3 3 4 4 4 4 3 4 4 5 5 7 12 10 3 15 17 15 13 10 11 16 17 18 18 16 14 17 19 19 19 19 16 16 19 21 23 30 33 29 27 27 24 22
42 42 40 39 39 38 36 36 38 38 35 34 35 35 33 32 32 31 29 30 30 30 30 31 30 27 26 25 24 22 19 15 10 8 9 9 8 7 7 7 7 5 3 3 2 1 2 1 0 0 1 3 4 4 7 13 11 4 13 15 14 12 9 9 11 13 15 16 13 12 15 17 17 17 18 16 16 18 20 21 26 30 33 34 31 30 32
41 41 40 39 39 38 36 37 39 37 35 35 35 34 32 31 31 30 30 30 30 31 31 31 30 28 26 25 24 22 19 16 13 9 9 9 8 6 5 6 5 4 3 3 3 2 1 1 2 3 2 2 3 2 6 12 9 5 11 13 13 12 10 8 9 11 11 10 9 12 16 18 17 16 17 17 17 19 21 22 24 28 32 34 34 36 39
41 41 42 41 40 38 37 37 36 34 34 35 34 33 32 31 29 30 30 30 31 32 32 31 29 28 26 25 24 22 19 16 14 11 9 8 8 6 5 4 4 4 4 3 3 2 2 2 3 3 3 3 2 2 5 9 7 4 9 12 12 11 10 8 8 12 10 6 8 12 16 18 17 16 19 19 18 19 22 25 27 30 33 35 35 35 33
43 43 43 42 40 38 36 34 33 33 34 34 32 32 33 31 29 30 30 31 31 32 32 30 28 27 26 24 23 22 19 16 15 12 9 9 8 6 5 4 3 4 4 3 3 3 3 3 4 4 3 4 3 2 4 7 7 4 8 11 9 9 9 8 9 13 10 5 7 12 15 17 18 17 19 21 19 20 25 28 29 32 35 37 36 33 29
43 43 42 41 39 36 34 32 32 34 34 32 31 32 33 32 31 31 31 31 31 33 33 30 26 25 25 24 23 22 19 16 15 12 10 9 9 7 6 6 5 5 4 3 2 3 3 3 5 4 3 3 2 1 3 6 7 6 6 9 8 8 8 7 9 14 11 4 6 13 15 17 20 18 19 22 23 23 27 30 31 32 34 35 35 33 31
42 42 41 39 36 33 31 32 34 35 34 31 31 32 33 33 33 33 32 31 31 34 34 28 23 23 24 23 22 22 20 16 14 12 10 10 10 9 8 7 7 6 6 5 3 2 2 2 4 3 1 1 0 1 2 3 5 5 4 6 8 10 10 8 8 11 11 5 6 12 16 17 19 20 21 26 26 22 25 30 30 30 31 31 31 34 35
40 40 38 35 32 31 32 34 34 34 33 30 30 31 32 33 34 34 34 33 32 33 32 26 20 20 23 22 21 21 20 16 13 12 11 10 11 11 10 9 9 8 8 8 6 5 4 4 5 4 3 2 1 0 2 2 3 4 4 5 7 10 13 12 9 9 11 8 6 10 15 17 18 19 22 27 26 22 24 29 28 27 28 27 26 32 37
39 36 33 32 33 35 36 35 34 33 31 30 29 30 32 34 35 35 34 32 29 27 28 25 20 18 20 21 21 20 19 16 13 11 11 10 11 12 12 11 10 10 10 10 10 9 8 7 7 6 5 4 3 3 3 2 1 2 4 5 7 10 13 13 12 10 11 11 8 8 12 14 16 20 23 24 24 23 24 27 26 25 27 27 26 30 36
37 34 33 35 38 38 37 35 34 32 31 31 31 32 33 35 36 35 30 26 24 23 24 25 23 20 20 20 20 20 19 17 14 12 11 10 11 12 13 12 12 12 12 12 11 10 10 10 10 8 7 6 5 4 3 1 1 1 3 4 5 10 11 11 12 12 12 13 11 9 11 14 17 21 23 21 22 24 24 25 26 26 27 28 27 28 33
37 37 38 40 40 38 35 35 35 34 33 32 32 33 34 34 35 33 27 23 23 24 23 24 23 21 20 20 20 19 19 18 15 12 11 10 11 12 14 14 13 13 12 13 12 12 12 12 12 10 9 9 7 5 4 2 2 3 3 2 3 8 10 9 11 13 13 13 13 10 12 16 19 20 21 20 22 24 23 24 26 26 27 28 26 26 30
40 41 43 44 43 38 34 34 34 33 32 31 31 32 33 34 34 32 26 23 26 26 24 24 23 20 19 19 19 19 18 18 16 13 11 10 10 11 14 15 15 14 14 13 13 13 12 13 13 13 12 11 10 8 6 5 4 4 4 3 2 6 8 8 10 12 12 13 13 11 12 16 18 19 19 21 23 24 24 24 26 26 27 27 26 27 29
44 43 44 43 40 35 32 31 30 30 29 29 30 33 34 33 33 31 26 25 27 27 24 24 23 20 18 18 18 17 18 17 16 13 11 10 10 10 12 15 17 16 16 15 15 14 13 13 13 13 13 12 12 11 10 8 7 7 7 6 4 4 6 8 9 10 11 13 14 12 13 16 17 19 20 21 23 25 25 25 25 27 28 28 29 29 30
44 43 41 38 34 31 30 29 28 29 29 30 31 34 35 33 31 30 28 27 28 27 24 23 23 20 18 17 16 16 16 16 15 13 11 10 10 10 11 14 17 18 18 18 17 17 15 14 12 13 13 13 13 13 12 11 10 9 9 8 6 6 6 7 8 9 11 13 14 13 13 15 16 18 20 21 23 25 26 27 28 28 28 29 29 30 30
42 41 39 36 33 31 30 29 29 29 31 32 33 35 36 33 30 28 28 29 28 26 23 22 21 19 18 16 15 15 15 15 14 13 12 11 11 10 10 12 15 17 19 20 20 19 18 16 14 13 12 13 14 14 14 13 12 11 10 9 8 8 7 7 8 10 11 12 14 14 14 15 16 16 18 22 24 25 26 28 29 29 29 30 30 31 31
42 41 40 38 36 34 32 31 31 32 33 34 35 36 35 32 27 26 28 29 27 25 23 21 20 19 17 15 14 14 14 14 13 13 12 12 12 12 11 11 12 14 18 21 21 20 19 19 17 15 13 14 14 15 14 14 13 13 12 10 9 9 10 10 9 10 11 12 13 14 15 15 15 14 16 20 22 24 25 26 27 27 28 30 31 32 33
42 42 40 38 37 36 35 34 33 34 35 36 35 33 31 28 26 28 29 28 26 24 22 20 20 19 17 15 13 13 14 13 13 13 13 12 12 13 13 12 13 14 16 19 21 21 20 20 19 17 16 15 15 14 14 15 15 14 14 12 10 11 12 12 11 11 12 13 13 13 14 14 13 12 15 18 19 20 23 25 25 26 28 30 32 32 33
40 40 39 38 37 36 36 36 35 36 36 35 33 31 31 29 29 29 28 26 24 22 21 20 19 18 17 15 12 12 13 13 13 13 14 13 14 15 15 15 15 14 15 17 19 20 20 20 19 18 18 17 16 14 14 15 15 15 15 15 14 13 14 14 14 12 13 14 14 14 15 15 14 13 14 16 17 18 20 22 25 27 28 30 31 31 31
38 38 38 38 37 36 36 36 35 35 35 33 30 30 31 31 29 28 26 25 23 21 20 19 18 17 16 15 13 11 13 14 13 13 14 15 16 16 17 16 15 15 15 15 16 18 19 19 19 18 18 18 17 16 15 15 16 16 17 18 17 16 17 18 17 15 14 14 15 16 16 17 17 16 15 16 17 18 20 21 24 26 27 27 29 31 31
37 38 38 37 36 35 35 34 33 32 30 28 28 28 28 28 27 27 26 24 22 20 19 19 18 16 15 15 14 13 13 13 13 14 16 17 17 17 17 16 16 16 15 14 14 16 17 18 18 18 19 18 17 17 17 16 16 17 18 19 19 19 20 22 22 19 16 15 16 17 17 17 18 18 18 18 18 19 21 22 24 25 24 23 25 29 30
36 36 35 34 33 33 32 30 29 27 25 24 24 25 25 26 27 27 25 23 21 20 19 18 17 16 15 14 14 14 13 13 13 15 16 17 17 17 17 15 15 15 15 14 14 15 16 18 17 17 17 17 17 19 19 18 18 19 19 19 19 19 21 24 24 22 20 18 17 17 17 18 17 17 18 19 19 21 23 24 24 24 23 21 22 25 27
33 32 31 30 30 29 27 24 24 24 23 24 25 26 26 27 26 25 23 22 21 20 19 18 17 15 15 14 14 14 14 14 14 15 17 17 16 16 15 14 15 15 13 12 13 15 16 18 18 17 16 16 17 19 20 21 22 22 20 19 19 19 21 22 24 23 20 19 18 18 19 19 19 17 16 17 19 21 23 25 25 25 25 23 23 24 25
30 29 29 29 28 26 23 22 23 24 24 25 27 28 27 27 26 24 22 22 21 19 18 18 17 15 14 14 14 13 14 15 15 16 17 17 16 16 15 14 14 13 10 11 14 15 16 18 19 17 15 16 17 18 20 22 24 23 20 19 20 21 22 22 22 22 20 17 16 16 18 20 21 21 20 19 20 21 23 25 27 27 27 27 26 26 26
29 29 28 28 26 23 22 23 25 25 25 26 28 28 27 26 25 23 22 21 21 20 18 17 16 15 15 15 14 13 14 15 16 16 17 17 16 15 14 14 14 11 9 10 14 15 16 19 20 16 14 18 20 19 19 21 22 21 21 21 21 22 23 23 22 21 21 19 18 17 18 19 21 21 21 21 21 22 23 25 27 28 28 28 28 28 28
29 29 28 27 25 23 24 26 26 27 28 29 28 27 26 25 24 23 22 21 20 19 19 18 17 16 15 15 14 14 14 15 16 17 17 17 16 14 14 15 14 11 9 11 15 16 17 19 19 18 19 23 23 20 19 19 18 18 20 23 23 22 22 23 23 23 22 21 20 19 19 20 21 21 22 22 22 22 23 24 26 27 28 28 28 27 27
29 29 28 27 26 25 26 28 28 29 30 29 28 26 26 25 24 23 21 21 20 19 18 18 17 16 15 15 16 15 15 16 16 17 18 18 16 14 15 15 14 12 11 14 16 18 18 18 20 24 27 27 22 19 18 18 18 18 20 21 23 24 23 22 23 23 23 22 21 19 18 18 19 21 23 23 23 23 23 24 24 25 26 26 26 26 25
30 29 28 28 27 27 28 29 29 28 28 27 26 26 25 25 24 22 21 21 21 20 18 18 18 17 16 15 16 16 16 16 17 18 18 18 17 16 15 15 15 14 15 16 17 17 18 19 22 26 27 26 24 23 22 20 19 20 20 19 20 23 24 24 24 23 24 24 23 22 21 21 21 22 23 24 24 24 23 23 23 24 24 23 23 23 23
30 29 29 29 28 29 30 30 28 26 25 25 26 26 25 23 23 23 22 21 21 20 18 18 18 17 16 16 16 17 17 18 18 19 19 18 17 16 15 15 16 16 16 15 15 17 20 22 24 24 25 26 27 28 27 24 23 22 21 20 20 21 22 24 25 25 25 25 25 24 24 24 24 24 25 25 25 24 24 23 24 24 24 23 23 22 22
29 29 29 29 29 29 30 29 26 25 25 26 26 24 23 23 24 23 21 19 20 20 19 18 17 17 18 18 17 17 18 18 19 19 20 19 18 17 16 17 17 16 15 14 15 17 20 22 22 22 24 27 29 29 29 28 27 25 24 24 23 22 21 22 24 25 26 26 26 25 24 24 25 26 26 26 26 25 25 25 25 26 25 25 24 24 23
29 29 28 29 29 28 28 27 26 26 27 27 25 23 22 23 24 22 19 18 21 23 21 18 18 18 19 19 19 18 18 19 19 19 20 19 19 18 17 17 17 16 16 16 16 17 18 19 21 22 24 26 28 29 30 29 28 27 26 25 23 23 23 22 22 23 24 25 26 26 25 25 25 26 27 27 27 26 26 26 26 27 27 27 26 26 26
29 28 28 29 28 27 26 26 26 27 27 26 24 23 22 23 23 22 20 20 22 23 22 20 20 20 20 20 19 19 19 19 19 20 20 20 19 19 18 18 17 17 17 17 17 18 18 19 21 23 25 26 27 29 30 30 29 29 28 26 24 23 23 22 22 22 23 24 26 26 26 27 28 28 28 27 27 27 27 27 27 28 28 28 28 28 28
29 28 28 28 27 25 25 25 26 26 25 24 23 23 23 22 22 23 22 20 21 23 24 23 21 21 21 20 19 19 19 20 20 20 21 21 20 20 19 18 18 18 18 18 18 19 20 21 21 22 24 26 28 29 30 31 30 30 29 28 27 25 24 23 23 23 22 23 24 26 27 28 29 30 29 28 27 27 27 28 28 29 30 30 30 29 30
29 28 27 27 26 25 25 26 25 25 24 24 23 23 22 22 23 24 23 21 21 24 25 23 22 21 21 20 19 19 20 20 20 20 21 21 21 21 21 19 18 19 18 17 16 17 20 22 23 23 24 27 29 30 30 31 31 32 32 31 29 28 26 25 24 23 22 22 24 26 27 28 29 29 29 28 27 26 27 27 28 29 30 30 31 31 31
29 28 26 26 26 26 26 26 25 24 24 24 24 23 23 24 25 24 23 22 23 24 25 24 23 22 21 21 20 20 20 20 20 21 22 23 23 23 23 21 19 19 19 18 18 19 21 22 23 24 26 28 29 30 31 31 31 32 32 32 31 30 29 28 26 25 23 23 23 25 27 27 27 28 27 26 26 26 26 26 27 28 28 29 30 30 30
29 27 26 26 27 27 26 25 24 24 24 25 25 24 24 24 25 25 23 23 25 25 25 24 24 23 21 21 21 21 21 21 21 22 23 24 25 25 24 22 20 19 19 21 23 24 24 24 24 25 27 29 29 30 31 32 32 33 33 32 31 30 30 29 28 26 25 23 21 22 25 26 26 27 27 26 26 26 26 26 27 27 27 27 28 28 27
29 27 27 27 27 26 25 25 24 24 24 25 26 26 25 25 25 25 24 24 26 26 26 26 25 24 22 22 21 21 22 23 23 23 24 25 26 27 26 25 24 23 24 25 26 27 27 27 27 26 27 28 30 31 31 32 32 33 33 33 32 32 31 30 29 29 27 25 23 23 24 24 24 25 27 27 26 26 27 26 27 27 27 27 27 27 26
Wind_Direction
338 337 335 335 337 340 341 343 345 346 346 346 347 348 350 351 350 350 352 353 355 356 353 351 350 349 352 355 357 358 357 358 359 358 2 7 7 6 7 9 12 12 12 11 2 354 350 344 341 342 348 8 358 341 125 126 137 159 165 168 189 213 185 171 177 172 171 178 183 184 180 172 171 170 166 173 186 190 192 184 175 180 187 189 194 203 210
338 336 334 334 336 337 339 342 344 346 346 346 346 348 348 350 351 350 351 352 354 356 355 352 351 350 349 352 355 357 357 356 357 359 2 6 7 9 10 12 13 10 9 12 6 355 351 348 347 347 345 302 180 146 146 145 145 161 174 176 188 202 171 168 172 168 172 180 184 184 181 172 170 171 168 173 183 181 174 170 171 179 183 192 200 202 207
337 334 333 334 334 335 337 341 343 344 345 345 346 347 347 348 349 349 351 353 354 355 356 353 351 349 346 349 353 355 355 353 355 360 3 4 4 7 11 13 13 10 8 10 9 359 349 352 357 2 45 100 131 147 161 185 188 186 190 167 136 156 162 164 169 170 175 181 183 182 181 175 170 169 165 166 176 181 176 174 180 183 185 193 197 198 206
334 332 332 334 334 334 336 339 342 343 344 344 345 345 346 346 347 347 350 353 353 354 356 355 352 347 345 350 352 351 352 355 354 356 360 2 2 4 9 12 12 11 9 9 13 13 9 17 34 62 86 94 109 126 139 184 189 167 152 115 108 154 165 162 165 170 175 179 181 179 180 179 171 165 163 167 177 188 199 200 184 173 173 181 190 203 209
332 332 332 333 333 333 335 337 339 341 342 343 343 344 345 345 346 348 349 352 353 353 355 356 354 350 349 349 347 346 352 357 356 354 355 358 2 4 4 6 9 10 10 13 18 21 32 62 85 90 90 92 98 104 96 131 170 164 122 107 126 152 162 160 162 167 172 179 188 189 186 181 172 166 164 170 185 195 205 199 168 157 165 183 198 207 208
329 331 332 332 330 330 333 336 337 339 341 342 342 343 344 344 346 348 348 351 353 353 353 353 353 353 350 342 340 348 355 357 356 355 353 352 358 2 359 359 5 8 12 18 22 31 70 103 102 93 96 100 99 103 97 100 175 201 98 128 145 151 156 160 163 168 173 179 186 192 188 177 174 173 168 168 187 196 194 179 154 149 168 193 202 202 201
327 329 332 331 329 329 332 334 335 337 339 341 341 341 341 343 345 346 346 348 351 352 353 351 350 353 351 343 344 352 356 356 354 353 353 351 353 359 0 359 0 4 10 22 34 52 92 108 99 89 104 115 111 111 99 77 191 157 98 118 148 154 154 160 167 173 180 182 181 187 189 180 179 181 173 166 186 195 186 170 155 155 178 195 196 191 186
326 327 330 331 330 329 330 331 334 336 338 339 339 339 339 340 342 345 345 346 348 350 352 350 349 352 354 352 352 353 353 353 351 350 353 352 351 356 1 1 358 360 7 17 34 67 103 115 110 106 115 116 117 131 124 113 182 122 88 107 149 156 156 165 174 176 179 180 177 180 185 185 187 186 178 174 196 201 196 176 157 161 187 188 186 188 181
324 325 328 330 330 328 328 330 332 334 336 337 337 337 337 337 339 343 344 344 345 348 350 349 349 351 354 355 354 352 350 350 349 349 353 351 349 354 358 358 357 358 0 3 13 64 111 124 119 112 114 115 126 148 147 148 177 82 63 111 150 159 163 165 168 171 171 173 174 176 178 184 192 189 184 186 196 194 194 180 161 167 191 181 181 191 189
323 324 326 328 328 326 327 330 330 331 334 335 335 335 334 334 336 340 343 344 343 345 348 349 349 350 351 352 353 351 349 349 349 350 353 352 350 355 356 354 355 355 352 354 3 42 99 140 133 111 97 105 131 148 153 170 207 339 26 129 144 155 166 163 163 171 174 173 175 178 181 188 193 190 188 190 191 187 188 187 181 186 187 170 169 181 185
322 322 323 325 326 326 326 328 328 329 331 332 333 332 332 332 334 337 342 345 344 343 346 348 349 350 349 350 352 351 348 350 349 348 353 355 353 357 359 354 355 358 358 4 13 27 78 143 153 140 125 116 112 127 151 180 202 344 22 149 147 147 163 172 176 175 170 170 173 178 187 192 191 191 190 189 192 192 187 185 187 187 178 164 158 164 167
319 320 322 323 324 324 325 326 325 326 328 330 330 330 330 330 331 335 340 345 345 342 343 346 347 349 350 349 350 349 350 354 350 348 354 360 359 3 6 360 358 5 8 15 25 36 78 108 126 149 149 131 81 85 151 153 169 135 98 140 146 144 153 174 183 177 166 166 171 177 184 186 184 191 194 194 196 197 188 181 184 188 186 176 165 163 154
318 320 322 322 322 323 323 323 323 322 324 327 328 328 328 328 329 333 337 342 345 342 342 344 345 346 350 350 349 348 350 353 351 349 356 5 7 7 6 2 11 24 26 26 30 44 62 61 56 111 153 145 95 118 120 111 147 144 133 148 159 161 133 152 172 177 172 169 171 175 179 182 183 190 195 199 203 203 195 188 185 188 191 180 160 159 165
319 320 322 323 323 322 321 320 319 319 321 324 325 325 326 326 327 331 335 339 343 342 340 342 343 343 347 350 350 347 348 350 350 350 356 2 6 5 3 9 26 26 21 25 35 52 66 66 62 73 101 109 107 86 36 39 158 160 160 170 183 197 100 132 156 163 165 166 167 172 178 180 182 186 197 207 210 211 205 196 183 173 181 180 166 163 178
321 320 321 323 322 320 318 316 316 316 318 322 324 323 323 323 325 329 332 336 341 342 339 340 342 343 345 348 350 347 346 346 344 346 352 358 1 0 -0 9 14 4 4 26 48 62 69 66 65 64 56 67 98 35 18 30 185 203 188 178 185 186 145 145 156 153 151 158 165 175 182 182 181 182 191 206 213 216 215 208 196 182 180 186 183 177 182
320 320 321 322 321 319 316 313 313 314 316 320 322 320 320 321 323 327 330 332 337 342 339 337 340 343 343 346 348 346 345 342 337 339 347 351 354 357 359 0 2 15 41 53 49 63 71 66 62 52 34 22 352 349 5 16 5 215 193 177 176 180 159 153 163 159 151 158 170 179 182 186 187 184 183 191 201 210 217 211 200 193 193 197 197 191 189
319 319 320 322 321 318 313 309 310 312 313 318 320 318 318 320 321 324 328 329 333 340 340 335 335 339 341 342 344 344 343 341 334 333 338 340 342 348 357 2 0 12 39 29 25 62 67 53 49 39 20 2 342 344 359 8 12 193 190 179 173 176 163 156 168 165 152 155 169 179 179 183 190 190 190 189 188 197 207 201 193 194 201 207 207 204 206
317 318 320 321 321 318 311 306 307 308 310 315 318 317 317 319 318 320 324 325 328 335 338 333 331 334 338 339 341 342 340 337 331 324 326 332 338 337 341 357 4 3 2 349 338 354 2 355 331 249 324 356 357 6 10 9 19 135 181 184 180 179 173 167 168 162 154 156 167 179 178 178 182 190 196 194 185 191 199 195 190 195 202 205 204 206 212
317 318 319 320 320 318 311 303 302 305 309 313 316 316 317 318 316 317 321 322 324 329 334 332 328 330 334 337 339 340 339 335 329 319 315 324 332 328 322 338 352 350 339 328 315 312 318 259 234 240 256 341 17 26 10 12 30 124 173 185 187 186 187 180 165 160 163 161 165 175 177 175 177 184 190 191 189 190 191 189 189 196 202 205 205 207 210
317 318 317 317 318 316 309 301 300 304 310 313 314 315 316 316 315 316 318 321 322 325 330 330 326 325 330 334 336 338 338 336 329 315 304 310 318 313 305 313 330 335 327 316 306 299 281 252 237 229 243 295 334 329 349 12 35 126 173 180 183 185 188 188 170 164 163 151 156 170 174 177 182 185 186 188 190 188 186 186 189 193 199 205 209 212 211
317 316 315 315 316 313 306 301 303 308 311 311 312 312 313 313 314 315 316 319 320 321 326 328 323 321 326 330 332 334 336 335 329 317 299 295 302 300 289 283 296 315 315 308 301 289 273 250 232 233 280 336 354 349 3 29 53 116 168 180 186 184 184 190 184 176 170 155 165 173 174 179 184 184 185 188 188 184 185 188 191 194 199 204 209 212 210
313 313 315 316 314 309 304 304 307 309 309 309 309 310 311 311 312 313 314 316 317 318 322 325 321 318 322 326 328 331 335 333 327 316 297 286 288 288 278 267 268 276 279 281 284 276 265 238 217 228 299 346 9 21 20 44 70 102 160 191 201 195 190 193 188 186 188 181 174 180 181 183 183 181 183 186 184 183 187 189 192 196 201 205 209 209 209
312 314 315 313 310 306 305 307 308 307 306 307 309 310 310 311 312 313 313 314 315 315 318 322 321 315 318 323 324 326 331 331 325 314 298 281 277 278 274 265 261 258 253 249 241 237 249 226 193 192 230 305 123 81 46 61 84 100 141 184 193 201 209 204 184 191 203 198 174 183 186 185 185 184 184 187 187 182 182 186 191 198 202 205 207 207 206
313 313 310 308 306 307 310 310 307 304 303 306 309 310 311 313 314 314 313 312 313 313 315 320 321 314 313 317 319 321 325 327 322 312 299 280 269 270 272 267 261 256 249 245 238 233 239 232 205 199 212 220 212 311 4 35 78 104 128 158 177 195 209 209 200 200 203 198 192 194 190 189 193 191 187 193 197 187 176 180 190 199 201 201 203 203 200
308 306 304 306 310 313 314 311 306 302 302 305 308 309 312 315 316 316 315 314 314 314 313 316 320 315 310 311 314 316 321 324 319 311 301 285 267 263 265 265 261 258 254 251 246 238 240 244 233 225 231 232 238 279 318 0 71 125 136 152 177 188 198 208 213 209 200 198 205 203 191 191 196 191 187 193 199 191 179 180 188 196 201 201 199 196 196
303 303 305 309 313 314 312 308 304 301 301 304 306 306 309 313 315 316 317 318 319 318 314 314 318 317 311 309 311 314 318 322 318 309 301 290 271 259 259 261 260 259 255 253 253 246 240 242 240 236 241 245 246 269 292 286 243 193 136 133 179 192 195 207 213 210 208 210 210 202 193 192 192 190 190 196 199 193 184 182 187 194 202 204 201 197 195
303 305 307 311 314 313 307 300 298 297 298 300 302 303 307 312 313 313 315 317 319 320 316 312 314 315 310 308 309 312 316 320 318 310 302 297 281 261 255 255 256 258 255 252 254 253 244 242 241 238 242 246 248 259 265 235 206 196 170 133 179 194 198 209 213 213 220 222 217 210 202 194 191 191 195 200 202 198 190 184 186 191 198 203 204 200 196
302 303 306 309 313 311 304 297 295 294 295 298 300 302 307 311 311 309 310 314 318 319 316 310 310 310 307 304 307 310 314 318 319 312 301 298 292 271 257 252 250 252 252 250 253 255 250 246 244 242 243 247 250 255 257 242 221 218 230 253 228 202 209 222 220 216 218 218 216 215 208 199 196 198 200 199 200 201 199 192 189 190 195 203 210 209 203
300 302 305 308 310 309 304 299 295 293 294 297 300 303 306 309 307 304 305 312 317 317 314 309 307 306 303 301 303 308 313 316 318 314 302 296 296 283 263 253 249 249 250 249 250 256 255 248 246 247 247 247 249 252 252 250 248 248 252 259 258 235 230 230 224 218 215 216 217 216 209 206 206 207 206 203 200 202 203 201 196 193 194 201 211 216 214
302 304 305 307 307 304 301 298 295 293 293 295 299 302 303 304 303 301 305 312 315 314 311 306 303 303 302 300 300 306 311 313 314 313 305 294 292 289 274 259 250 247 249 249 250 253 254 248 246 249 248 245 246 248 247 249 254 255 257 262 266 259 243 228 224 223 220 220 222 219 214 213 213 212 212 210 205 203 205 206 204 199 197 200 208 216 219
300 302 303 304 303 300 297 294 293 293 292 294 298 300 300 299 298 298 303 310 311 310 308 303 299 299 299 299 301 305 309 311 311 310 307 300 296 294 286 271 257 249 247 248 249 251 253 250 247 248 244 239 241 245 245 245 248 251 256 261 258 248 238 229 229 232 229 225 226 225 220 216 215 217 217 214 210 208 206 206 207 205 203 204 207 213 219
295 297 299 300 300 298 296 294 292 291 291 293 297 299 298 297 296 297 303 308 308 307 305 300 296 296 295 296 301 303 304 307 307 305 305 304 301 298 293 285 275 261 251 248 248 249 252 251 249 247 243 237 238 243 245 244 243 246 251 256 254 247 240 234 235 241 238 230 227 227 223 220 222 225 221 216 214 214 211 208 209 211 211 210 211 214 219
292 295 297 297 297 297 296 294 292 292 292 295 297 297 295 296 298 301 304 305 304 304 302 297 293 294 294 295 300 301 301 303 303 303 305 305 303 301 296 288 279 269 257 251 248 248 250 251 250 248 246 242 241 243 245 245 242 241 244 247 250 252 249 242 238 241 240 236 233 232 228 227 229 225 217 215 217 216 213 213 215 216 216 214 213 215 218
292 294 295 295 295 295 294 294 293 293 294 295 295 293 292 294 298 300 301 302 301 300 298 293 291 291 292 293 296 298 297 299 302 303 303 304 302 298 294 287 279 271 263 256 251 248 249 250 249 247 246 245 241 242 246 247 243 239 240 240 241 246 251 248 241 236 237 239 239 238 237 238 238 230 221 222 223 218 214 217 220 221 219 218 216 216 217
292 293 293 294 294 293 292 293 293 293 294 294 293 291 291 293 296 297 299 299 299 297 293 290 289 289 289 290 292 292 292 296 302 302 301 304 304 298 293 289 280 270 264 260 254 249 249 249 247 246 245 244 243 243 246 247 245 240 238 237 235 237 244 247 244 239 240 245 246 245 245 246 242 234 227 228 228 224 219 218 218 220 221 221 219 219 219
292 293 293 293 293 292 292 294 294 293 292 293 293 292 292 292 295 298 298 296 295 293 290 287 286 286 286 287 290 292 293 296 301 303 304 305 304 297 291 287 278 268 262 257 250 246 246 247 247 247 245 245 245 244 243 244 247 245 240 236 235 235 238 242 244 243 244 250 252 252 252 252 247 239 235 233 231 226 221 217 216 220 224 223 220 220 221
292 292 293 293 293 292 292 293 293 291 291 293 294 293 293 294 295 297 296 295 293 291 287 285 284 284 284 285 287 290 294 297 301 305 308 308 303 296 290 285 277 268 262 255 247 243 242 243 244 246 247 246 245 244 242 242 245 246 242 239 238 238 239 242 245 246 246 248 252 253 253 251 247 243 241 240 235 228 223 220 219 222 227 227 223 221 223
293 293 293 294 293 292 292 291 290 288 290 293 294 294 296 296 295 294 294 292 290 288 285 284 283 281 281 283 286 289 294 299 305 310 312 310 303 295 288 280 272 267 263 256 249 244 241 240 241 242 246 249 249 246 244 242 242 243 243 241 240 241 242 243 245 247 248 250 252 252 249 244 239 238 240 240 235 229 227 225 223 224 229 231 230 228 228
293 294 294 293 292 290 288 286 286 287 288 291 294 296 296 294 292 292 292 289 286 285 282 281 281 280 278 279 282 287 293 301 308 314 315 312 304 294 287 279 272 268 264 253 245 241 238 239 239 240 245 252 251 248 247 245 242 241 244 245 243 244 244 244 245 246 247 248 248 247 243 238 236 236 238 240 237 234 232 231 229 230 232 234 234 234 234
294 294 294 293 292 289 285 284 286 288 289 290 294 295 294 291 289 289 288 285 283 283 281 279 278 278 278 277 280 285 293 301 310 315 316 313 306 296 287 279 274 270 260 247 243 240 238 238 238 239 243 246 242 241 245 248 246 244 244 244 244 244 244 243 244 245 245 245 247 247 244 240 238 237 237 238 238 237 236 235 235 236 236 236 236 237 237
294 294 293 292 291 290 288 287 288 288 289 291 294 294 292 289 287 285 284 283 281 279 278 278 277 276 275 276 279 285 292 300 309 316 316 312 307 296 283 278 277 274 260 246 242 241 239 237 234 234 238 240 238 237 241 245 245 243 242 241 241 243 244 244 245 245 244 244 246 246 242 237 235 236 238 238 238 238 238 239 239 240 240 240 239 239 239
292 292 292 291 291 289 287 285 285 286 287 290 292 291 289 287 284 282 281 280 278 275 276 277 276 274 272 274 278 284 293 301 308 314 316 314 308 296 283 278 279 274 258 245 241 240 240 238 233 233 236 238 238 239 241 242 241 240 241 242 243 243 243 245 245 244 242 242 244 245 242 236 231 232 235 237 238 238 239 240 240 240 241 241 241 240 240
291 292 292 290 289 287 285 285 286 286 287 287 287 288 287 285 282 280 277 275 276 277 276 275 274 272 271 273 278 285 293 300 306 312 315 314 308 298 287 280 276 267 255 248 244 241 241 240 238 238 239 240 239 240 242 242 241 241 243 245 247 245 243 244 245 243 242 243 246 247 249 248 243 237 236 238 239 239 239 239 238 239 239 240 241 241 241
290 291 291 290 288 287 286 286 287 286 285 284 285 286 285 282 278 275 274 275 277 277 274 272 272 272 271 272 278 285 292 299 305 310 315 315 309 300 289 279 272 266 261 255 249 244 242 241 240 241 242 240 239 240 241 241 242 243 245 248 250 250 248 247 247 245 244 245 247 248 250 252 252 248 244 242 241 241 240 240 239 238 239 240 242 243 243
288 289 289 288 287 286 284 284 285 284 283 283 284 283 282 278 274 273 275 277 277 274 271 269 270 270 271 274 278 284 290 297 303 308 313 314 310 301 290 279 272 269 267 259 249 244 244 244 242 242 242 241 241 242 243 243 243 245 247 248 250 253 253 252 250 247 245 245 246 247 248 250 252 252 250 248 246 245 245 245 244 243 242 243 245 246 247
287 288 288 286 285 284 284 283 283 282 281 281 281 279 275 272 272 274 275 274 273 273 272 270 267 267 270 274 279 283 288 293 299 306 310 312 309 302 294 286 278 273 268 260 251 245 246 248 247 245 244 244 243 243 243 243 243 244 245 247 249 251 252 253 252 249 246 245 244 245 247 249 251 253 253 252 250 249 249 250 250 250 249 248 249 250 251
286 287 287 286 285 284 283 281 280 279 279 279 278 275 270 269 271 272 271 270 271 273 273 269 266 265 267 272 277 283 287 291 297 303 307 309 308 304 297 290 281 274 269 263 255 248 244 244 246 247 246 246 245 244 244 243 243 243 244 246 248 249 250 251 251 249 247 246 246 247 250 252 254 255 255 254 253 252 252 251 252 253 253 253 253 253 254
286 286 285 284 283 281 279 277 277 277 277 276 274 271 269 269 269 270 270 271 271 271 270 268 265 265 267 271 276 280 283 288 295 301 305 308 307 303 297 289 281 274 269 266 263 259 251 245 243 246 248 247 247 246 245 244 244 244 244 244 247 250 251 251 251 250 250 250 251 251 253 254 256 257 257 256 256 255 254 253 253 253 253 253 254 254 255
286 285 284 282 281 279 276 275 274 275 274 273 270 268 268 268 268 269 271 271 268 266 267 267 267 267 269 273 275 277 281 287 294 299 302 304 304 301 297 292 283 275 270 267 264 264 261 253 248 248 250 249 248 249 249 247 245 245 245 245 247 249 251 252 252 252 252 251 252 253 254 255 257 258 258 258 258 257 256 254 254 254 253 253 253 253 253
284 283 281 280 278 276 275 274 273 273 273 272 270 268 268 268 269 269 270 269 266 265 266 267 268 269 271 274 275 276 280 287 293 296 299 300 300 298 297 293 285 277 272 266 260 258 259 259 256 255 253 251 250 250 250 249 247 247 246 247 247 248 249 250 251 252 252 252 254 256 256 257 257 259 259 259 258 257 256 254 253 253 253 253 253 253 252
284 282 280 277 275 274 273 272 272 272 272 272 271 269 268 267 268 269 269 268 267 267 267 268 268 269 269 271 274 278 282 286 290 293 295 296 296 295 294 291 283 274 267 262 259 257 258 259 259 257 255 254 252 251 250 249 249 248 247 247 247 247 247 247 248 249 250 252 253 256 257 257 258 259 260 260 258 257 256 255 253 252 251 251 252 251 251
282 279 275 273 272 271 270 270 271 271 271 270 269 268 267 266 266 267 267 266 266 266 267 268 269 269 270 271 273 277 281 285 288 291 292 292 292 292 291 288 281 273 264 259 257 257 258 259 260 259 256 254 252 251 250 249 249 249 248 247 245 244 245 245 245 246 247 247 248 252 255 256 257 258 259 260 260 259 258 256 255 254 252 250 250 249 248
Height
5730 5727 5724 5720 5717 5713 5710 5707 5703 5699 5694 5690 5686 5682 5678 5674 5670 5665 5660 5657 5652 5647 5643 5640 5637 5633 5630 5628 5625 5622 5619 5616 5614 5611 5608 5606 5602 5599 5597 5594 5591 5588 5586 5583 5581 5578 5576 5574 5573 5572 5569 5568 5568 5568 5567 5566 5566 5566 5567 5567 5567 5567 5569 5571 5572 5576 5582 5589 5593 5597 5602 5605 5608 5613 5618 5626 5634 5638 5639 5644 5649 5653 5658 5664 5668 5671 5673
5728 5725 5722 5719 5715 5712 5708 5705 5701 5698 5694 5689 5685 5681 5677 5674 5670 5666 5661 5656 5652 5648 5643 5639 5636 5633 5630 5628 5625 5621 5619 5616 5614 5612 5609 5606 5603 5600 5597 5595 5592 5590 5587 5584 5582 5579 5577 5575 5574 5572 5571 5570 5569 5569 5569 5569 5568 5569 5569 5569 5569 5569 5570 5572 5574 5577 5582 5587 5591 5595 5599 5602 5606 5611 5617 5624 5632 5638 5641 5644 5649 5652 5657 5662 5666 5669 5671
5726 5723 5720 5717 5713 5710 5707 5703 5700 5696 5692 5688 5684 5680 5676 5673 5670 5667 5663 5657 5652 5648 5644 5640 5636 5634 5632 5629 5625 5622 5620 5617 5615 5612 5610 5607 5604 5601 5598 5595 5593 5591 5588 5585 5583 5581 5578 5576 5574 5573 5572 5571 5571 5571 5571 5571 5570 5570 5571 5571 5571 5572 5573 5574 5576 5578 5582 5586 5591 5595 5599 5603 5606 5609 5615 5623 5629 5635 5640 5643 5645 5649 5654 5661 5666 5669 5669
5725 5721 5718 5715 5711 5708 5705 5701 5698 5695 5691 5687 5683 5679 5675 5671 5668 5665 5662 5658 5653 5649 5646 5641 5637 5634 5632 5629 5626 5624 5621 5618 5615 5612 5610 5607 5604 5602 5599 5597 5594 5592 5589 5587 5585 5582 5580 5578 5576 5574 5573 5572 5573 5573 5573 5573 5572 5572 5573 5573 5573 5574 5576 5577 5579 5582 5587 5593 5598 5601 5604 5607 5609 5610 5614 5621 5628 5634 5639 5642 5644 5648 5653 5659 5664 5666 5666
5723 5719 5716 5713 5709 5706 5703 5700 5696 5693 5690 5686 5682 5678 5675 5671 5667 5663 5659 5656 5652 5648 5645 5641 5638 5635 5631 5628 5627 5624 5621 5617 5615 5612 5610 5608 5606 5604 5601 5598 5596 5593 5591 5588 5586 5583 5581 5580 5579 5577 5575 5575 5575 5575 5575 5575 5575 5574 5575 5576 5576 5577 5580 5581 5584 5588 5591 5595 5600 5604 5607 5610 5614 5615 5615 5619 5627 5633 5637 5640 5643 5648 5653 5657 5659 5661 5664
5721 5717 5714 5711 5707 5704 5700 5698 5695 5691 5688 5684 5680 5677 5674 5670 5666 5662 5659 5655 5651 5647 5643 5639 5637 5634 5630 5628 5626 5624 5620 5617 5614 5612 5610 5608 5606 5605 5603 5600 5598 5595 5593 5590 5588 5586 5584 5582 5581 5579 5578 5577 5576 5576 5577 5578 5577 5577 5577 5578 5579 5581 5583 5585 5589 5593 5595 5596 5600 5605 5608 5611 5616 5618 5617 5620 5626 5631 5635 5638 5641 5646 5651 5654 5655 5657 5662
5718 5715 5712 5708 5705 5701 5698 5696 5693 5690 5687 5683 5679 5675 5672 5669 5666 5662 5659 5655 5652 5648 5644 5640 5637 5634 5631 5629 5626 5622 5619 5617 5615 5613 5611 5609 5607 5605 5603 5602 5599 5597 5595 5592 5590 5589 5587 5585 5583 5581 5580 5580 5579 5578 5579 5580 5580 5580 5580 5581 5582 5584 5587 5589 5591 5594 5596 5598 5601 5605 5610 5613 5616 5619 5618 5621 5627 5631 5633 5637 5640 5643 5648 5650 5652 5656 5659
5716 5713 5709 5706 5703 5699 5696 5694 5691 5688 5685 5682 5678 5674 5671 5668 5665 5661 5657 5654 5651 5648 5645 5642 5638 5634 5631 5628 5625 5622 5620 5618 5615 5613 5611 5609 5607 5605 5604 5602 5600 5598 5597 5595 5592 5591 5589 5587 5586 5584 5583 5582 5582 5581 5582 5582 5583 5583 5583 5584 5586 5586 5589 5591 5593 5594 5596 5599 5603 5606 5610 5613 5617 5619 5618 5620 5627 5631 5633 5635 5638 5642 5644 5646 5650 5654 5656
5713 5710 5707 5704 5700 5697 5694 5692 5689 5686 5683 5680 5677 5673 5670 5667 5665 5662 5658 5654 5650 5648 5645 5641 5637 5633 5630 5628 5625 5623 5621 5619 5617 5614 5611 5609 5607 5605 5604 5602 5600 5598 5598 5596 5594 5593 5592 5591 5589 5587 5585 5584 5584 5584 5584 5585 5585 5585 5585 5587 5588 5588 5590 5592 5594 5595 5597 5600 5604 5608 5610 5613 5616 5618 5618 5620 5625 5629 5631 5634 5638 5641 5642 5645 5649 5651 5654
5711 5708 5704 5701 5698 5695 5692 5690 5687 5684 5682 5679 5675 5672 5669 5666 5664 5661 5658 5654 5650 5647 5644 5641 5637 5633 5630 5628 5625 5624 5622 5619 5617 5615 5612 5610 5608 5606 5605 5603 5601 5599 5598 5597 5595 5594 5593 5592 5591 5590 5588 5587 5587 5588 5587 5587 5588 5588 5587 5589 5590 5591 5592 5594 5595 5597 5599 5601 5605 5609 5611 5612 5614 5616 5619 5621 5625 5629 5630 5633 5637 5639 5641 5645 5648 5650 5653
5708 5705 5702 5699 5696 5693 5690 5688 5686 5683 5680 5677 5674 5671 5668 5665 5663 5660 5657 5653 5649 5646 5643 5641 5638 5634 5630 5627 5625 5623 5622 5619 5617 5615 5613 5611 5608 5607 5605 5604 5602 5600 5599 5597 5596 5595 5593 5592 5592 5592 5591 5590 5590 5590 5590 5589 5590 5590 5589 5590 5591 5593 5594 5596 5597 5599 5600 5601 5605 5608 5611 5612 5615 5618 5621 5624 5627 5629 5630 5632 5635 5638 5641 5644 5646 5648 5651
5706 5703 5700 5697 5694 5691 5688 5686 5684 5681 5678 5675 5672 5670 5667 5664 5662 5659 5656 5653 5649 5645 5642 5640 5638 5634 5631 5627 5625 5623 5622 5620 5618 5615 5613 5611 5609 5606 5605 5604 5603 5601 5599 5598 5597 5595 5595 5594 5593 5593 5593 5593 5592 5592 5592 5591 5592 5592 5592 5592 5592 5594 5595 5597 5598 5599 5600 5601 5603 5606 5610 5614 5617 5620 5622 5624 5627 5629 5631 5632 5634 5637 5639 5642 5644 5646 5650
5703 5701 5697 5694 5691 5688 5685 5683 5681 5679 5676 5673 5670 5667 5665 5662 5660 5657 5655 5652 5649 5645 5642 5639 5637 5634 5631 5628 5625 5622 5621 5619 5618 5616 5613 5611 5609 5607 5606 5605 5603 5602 5601 5599 5598 5596 5596 5595 5594 5595 5595 5595 5595 5594 5594 5594 5594 5594 5595 5595 5595 5595 5595 5596 5598 5600 5601 5602 5604 5607 5611 5614 5616 5618 5621 5624 5626 5628 5630 5631 5633 5635 5638 5641 5643 5645 5649
5700 5697 5694 5692 5689 5686 5683 5680 5678 5676 5674 5671 5668 5665 5662 5660 5658 5656 5653 5651 5648 5645 5642 5640 5637 5633 5630 5628 5625 5622 5620 5619 5617 5616 5614 5612 5610 5608 5607 5606 5605 5603 5602 5601 5599 5598 5597 5597 5596 5597 5597 5597 5597 5597 5597 5596 5596 5597 5597 5597 5597 5597 5596 5597 5599 5600 5602 5604 5606 5608 5611 5613 5615 5618 5621 5623 5625 5628 5631 5633 5636 5638 5639 5641 5642 5645 5648
5697 5694 5691 5688 5685 5683 5680 5678 5676 5674 5671 5669 5666 5663 5660 5658 5656 5654 5652 5649 5647 5644 5641 5639 5637 5633 5630 5627 5625 5622 5620 5619 5618 5616 5614 5612 5611 5609 5608 5607 5605 5604 5603 5602 5601 5600 5599 5598 5598 5598 5599 5599 5599 5599 5599 5599 5599 5599 5598 5598 5599 5599 5599 5599 5600 5601 5602 5604 5607 5609 5611 5612 5614 5617 5620 5623 5626 5629 5632 5636 5640 5641 5641 5642 5644 5646 5648
5693 5691 5688 5685 5682 5680 5677 5675 5673 5671 5669 5666 5664 5661 5658 5656 5654 5652 5650 5647 5646 5644 5640 5637 5635 5632 5629 5627 5624 5622 5620 5619 5618 5616 5614 5613 5611 5610 5608 5607 5606 5605 5604 5603 5602 5601 5600 5599 5599 5599 5600 5601 5601 5601 5600 5601 5600 5599 5599 5599 5600 5600 5600 5600 5602 5602 5603 5604 5606 5608 5610 5612 5615 5617 5619 5622 5626 5629 5632 5636 5641 5642 5642 5644 5645 5647 5649
5690 5687 5685 5682 5679 5677 5674 5672 5670 5668 5666 5664 5661 5659 5656 5654 5652 5650 5648 5646 5644 5642 5640 5636 5634 5631 5629 5626 5624 5621 5619 5618 5617 5616 5614 5613 5612 5611 5609 5608 5606 5606 5605 5604 5603 5602 5601 5601 5600 5600 5600 5601 5601 5601 5601 5600 5599 5599 5599 5600 5600 5601 5601 5602 5602 5603 5604 5605 5607 5608 5610 5612 5615 5617 5619 5622 5625 5628 5631 5635 5639 5642 5643 5645 5648 5650 5652
5686 5684 5681 5679 5676 5674 5672 5669 5667 5665 5663 5661 5659 5656 5654 5652 5650 5648 5647 5644 5642 5640 5639 5636 5633 5631 5628 5626 5623 5621 5619 5617 5616 5615 5614 5613 5612 5611 5609 5608 5607 5606 5605 5605 5604 5603 5602 5602 5601 5601 5601 5601 5601 5601 5601 5600 5599 5599 5600 5601 5602 5603 5603 5603 5604 5605 5605 5605 5606 5609 5610 5612 5615 5618 5620 5622 5624 5627 5630 5634 5639 5642 5643 5644 5648 5650 5650
5683 5680 5678 5676 5673 5671 5669 5666 5664 5662 5661 5658 5656 5654 5652 5650 5648 5646 5644 5643 5640 5638 5637 5634 5631 5629 5627 5625 5622 5620 5618 5616 5615 5614 5614 5613 5612 5611 5610 5609 5607 5607 5606 5605 5605 5604 5603 5602 5602 5602 5602 5602 5602 5601 5601 5601 5600 5600 5601 5602 5603 5604 5604 5604 5605 5605 5605 5605 5607 5608 5610 5612 5614 5617 5620 5622 5623 5625 5629 5633 5637 5640 5641 5643 5645 5646 5647
5679 5677 5674 5672 5670 5667 5665 5663 5661 5660 5658 5656 5653 5651 5649 5648 5646 5644 5642 5640 5638 5636 5635 5633 5630 5627 5625 5623 5621 5619 5617 5615 5614 5613 5613 5612 5611 5610 5610 5609 5608 5607 5606 5606 5605 5605 5604 5603 5603 5603 5603 5603 5602 5602 5601 5601 5601 5601 5602 5603 5604 5605 5606 5605 5605 5606 5606 5607 5608 5609 5610 5612 5614 5616 5618 5620 5622 5625 5628 5631 5634 5637 5639 5641 5643 5644 5648
5675 5673 5671 5668 5666 5664 5662 5660 5659 5657 5655 5653 5651 5649 5647 5645 5644 5642 5640 5638 5636 5634 5633 5631 5628 5625 5623 5622 5620 5618 5616 5614 5613 5612 5611 5611 5611 5610 5610 5609 5608 5607 5606 5606 5606 5605 5604 5604 5604 5604 5603 5603 5603 5602 5602 5601 5601 5602 5603 5604 5605 5606 5606 5606 5606 5607 5607 5608 5609 5610 5611 5612 5614 5615 5617 5618 5621 5623 5626 5629 5632 5634 5636 5637 5640 5643 5648
5672 5669 5667 5664 5662 5661 5659 5657 5656 5654 5652 5650 5649 5647 5644 5643 5642 5640 5638 5636 5634 5632 5630 5629 5627 5623 5622 5620 5618 5617 5615 5614 5612 5611 5610 5610 5610 5609 5609 5608 5608 5607 5607 5606 5606 5606 5605 5605 5605 5605 5604 5603 5603 5603 5603 5603 5603 5603 5604 5604 5605 5605 5606 5606 5607 5607 5608 5608 5609 5610 5611 5612 5613 5615 5616 5618 5621 5623 5624 5627 5630 5633 5635 5637 5640 5643 5647
5668 5665 5663 5661 5659 5658 5656 5655 5653 5651 5649 5648 5646 5644 5642 5640 5639 5637 5635 5634 5632 5629 5627 5627 5625 5622 5619 5618 5617 5615 5614 5613 5611 5610 5609 5609 5608 5608 5608 5608 5607 5607 5607 5606 5606 5606 5606 5606 5606 5605 5604 5604 5604 5604 5603 5603 5603 5603 5604 5604 5604 5606 5606 5606 5607 5608 5608 5608 5609 5610 5611 5612 5614 5615 5616 5618 5621 5622 5623 5626 5629 5631 5633 5636 5639 5641 5644
5664 5662 5660 5658 5657 5655 5653 5652 5649 5647 5646 5645 5643 5642 5640 5638 5636 5634 5632 5631 5629 5626 5624 5624 5624 5621 5618 5617 5615 5614 5612 5611 5610 5609 5608 5607 5607 5607 5607 5606 5606 5606 5606 5606 5606 5606 5606 5606 5606 5605 5605 5605 5604 5604 5603 5603 5603 5604 5604 5604 5605 5606 5606 5606 5607 5607 5608 5609 5609 5610 5611 5612 5614 5615 5616 5618 5620 5621 5623 5626 5628 5629 5632 5635 5637 5639 5642
5660 5659 5657 5655 5654 5652 5650 5648 5646 5644 5643 5642 5641 5639 5637 5635 5633 5631 5629 5627 5626 5624 5622 5621 5621 5620 5617 5615 5614 5612 5611 5610 5609 5608 5607 5606 5606 5605 5605 5605 5605 5605 5605 5605 5605 5606 5606 5606 5606 5605 5605 5605 5605 5604 5604 5603 5603 5603 5603 5604 5604 5605 5605 5606 5606 5607 5608 5609 5609 5610 5611 5612 5614 5615 5616 5618 5620 5621 5623 5626 5627 5629 5631 5633 5635 5638 5641
5657 5656 5654 5652 5650 5649 5646 5644 5642 5641 5639 5639 5637 5636 5634 5632 5630 5628 5626 5625 5623 5622 5620 5618 5617 5617 5615 5613 5612 5610 5609 5608 5607 5606 5606 5605 5604 5604 5604 5604 5604 5604 5604 5604 5604 5605 5605 5605 5605 5605 5605 5605 5605 5605 5604 5604 5604 5603 5603 5603 5604 5604 5604 5605 5606 5607 5607 5607 5608 5609 5611 5612 5613 5615 5616 5618 5620 5621 5622 5624 5626 5629 5631 5632 5634 5637 5640
5654 5652 5650 5649 5647 5645 5643 5641 5639 5638 5636 5635 5634 5633 5631 5629 5627 5625 5624 5623 5621 5620 5618 5616 5615 5614 5613 5611 5610 5608 5607 5606 5605 5604 5604 5603 5603 5602 5602 5602 5602 5602 5602 5602 5603 5603 5604 5604 5604 5605 5605 5604 5605 5605 5605 5604 5604 5604 5603 5603 5604 5604 5605 5605 5605 5606 5607 5607 5608 5609 5611 5612 5613 5615 5616 5618 5620 5621 5623 5624 5625 5628 5630 5631 5632 5636 5639
5649 5648 5646 5644 5642 5641 5639 5637 5636 5634 5633 5632 5631 5629 5628 5626 5624 5622 5621 5620 5618 5617 5616 5614 5613 5612 5611 5609 5608 5606 5605 5604 5603 5603 5602 5602 5601 5601 5600 5600 5600 5601 5601 5601 5601 5602 5602 5603 5604 5604 5604 5604 5604 5605 5605 5605 5605 5604 5604 5603 5603 5604 5605 5605 5605 5605 5606 5607 5608 5609 5610 5611 5613 5615 5616 5617 5619 5621 5623 5624 5625 5626 5628 5629 5630 5633 5637
5644 5643 5642 5640 5638 5636 5635 5633 5632 5631 5630 5629 5628 5626 5625 5624 5621 5619 5618 5618 5616 5614 5613 5611 5610 5610 5609 5608 5606 5604 5603 5602 5602 5601 5601 5600 5600 5599 5599 5599 5599 5599 5599 5599 5600 5600 5601 5602 5602 5603 5603 5603 5604 5604 5604 5605 5605 5604 5604 5604 5604 5604 5604 5605 5605 5605 5606 5606 5608 5609 5610 5611 5612 5613 5615 5617 5618 5619 5622 5624 5625 5626 5626 5627 5628 5630 5633
5639 5638 5637 5636 5634 5633 5631 5630 5629 5628 5627 5626 5624 5623 5621 5621 5618 5615 5615 5614 5613 5611 5610 5609 5607 5607 5606 5605 5604 5603 5602 5601 5600 5599 5599 5598 5598 5597 5597 5597 5597 5597 5597 5597 5598 5598 5599 5600 5601 5602 5602 5602 5602 5603 5603 5604 5604 5604 5604 5604 5605 5604 5604 5604 5605 5605 5605 5606 5607 5608 5609 5610 5611 5612 5614 5616 5618 5618 5620 5623 5625 5626 5626 5626 5627 5628 5631
5635 5633 5632 5631 5630 5629 5628 5627 5626 5625 5623 5622 5621 5619 5617 5617 5616 5613 5611 5611 5610 5609 5607 5606 5605 5604 5604 5603 5602 5601 5600 5599 5598 5598 5597 5597 5596 5596 5595 5595 5595 5595 5595 5595 5596 5596 5597 5598 5599 5600 5601 5601 5601 5601 5602 5602 5603 5603 5604 5604 5604 5604 5604 5604 5604 5604 5605 5605 5606 5607 5609 5609 5610 5611 5613 5615 5616 5618 5619 5621 5624 5626 5627 5627 5627 5628 5629
5630 5629 5628 5626 5625 5624 5623 5623 5622 5621 5619 5618 5617 5615 5613 5612 5612 5610 5609 5608 5606 5605 5604 5603 5602 5602 5601 5601 5600 5599 5598 5597 5597 5596 5595 5595 5594 5594 5593 5593 5593 5593 5593 5593 5593 5594 5595 5596 5597 5598 5599 5599 5600 5600 5601 5601 5602 5602 5603 5603 5603 5603 5603 5604 5604 5604 5604 5604 5605 5606 5608 5608 5609 5610 5611 5613 5615 5617 5618 5620 5622 5624 5626 5626 5627 5628 5629
5625 5624 5623 5622 5620 5619 5619 5618 5617 5616 5615 5614 5612 5611 5609 5609 5608 5606 5605 5604 5603 5602 5601 5600 5600 5599 5599 5599 5598 5597 5596 5595 5595 5594 5593 5593 5593 5592 5591 5591 5590 5590 5590 5591 5591 5592 5593 5594 5595 5596 5597 5597 5598 5599 5599 5600 5601 5601 5602 5602 5602 5602 5602 5602 5603 5603 5603 5603 5604 5604 5605 5606 5608 5608 5610 5611 5613 5615 5617 5619 5620 5622 5623 5624 5625 5627 5628
5621 5620 5618 5617 5616 5615 5614 5613 5612 5612 5610 5609 5608 5607 5605 5605 5605 5603 5602 5601 5600 5599 5598 5598 5597 5597 5596 5596 5596 5595 5594 5593 5593 5592 5591 5591 5591 5590 5589 5588 5588 5588 5588 5588 5589 5590 5591 5591 5592 5593 5594 5595 5596 5597 5598 5598 5599 5600 5600 5600 5600 5600 5600 5600 5601 5602 5602 5603 5603 5604 5604 5604 5606 5607 5609 5610 5611 5613 5615 5617 5617 5619 5620 5621 5623 5625 5626
5616 5615 5614 5612 5611 5610 5609 5609 5608 5607 5606 5605 5604 5603 5601 5601 5600 5600 5599 5598 5597 5596 5596 5595 5595 5594 5594 5593 5593 5593 5592 5591 5591 5590 5589 5589 5589 5588 5587 5586 5586 5586 5586 5586 5587 5587 5588 5589 5590 5591 5591 5593 5594 5595 5596 5596 5596 5597 5598 5598 5599 5599 5598 5598 5599 5601 5602 5602 5602 5603 5603 5604 5605 5606 5607 5608 5609 5611 5613 5614 5615 5616 5618 5619 5620 5622 5624
5611 5610 5609 5608 5606 5605 5605 5604 5604 5603 5602 5601 5600 5599 5598 5597 5596 5596 5595 5594 5594 5593 5593 5592 5592 5592 5591 5591 5591 5590 5590 5589 5589 5588 5587 5587 5586 5585 5584 5584 5583 5583 5583 5584 5584 5585 5586 5586 5587 5588 5589 5591 5592 5593 5593 5594 5594 5595 5595 5596 5596 5597 5596 5596 5597 5599 5601 5602 5601 5601 5602 5602 5603 5604 5606 5607 5608 5609 5611 5612 5613 5614 5615 5616 5618 5620 5621
5606 5605 5604 5603 5602 5601 5600 5600 5600 5598 5598 5598 5597 5596 5595 5594 5593 5592 5591 5591 5590 5590 5590 5589 5589 5589 5589 5589 5588 5588 5587 5587 5587 5586 5585 5584 5583 5582 5581 5581 5581 5581 5581 5582 5582 5583 5584 5584 5585 5586 5587 5589 5589 5590 5591 5592 5592 5592 5593 5594 5595 5595 5595 5595 5596 5597 5599 5600 5601 5600 5600 5600 5601 5602 5604 5605 5606 5607 5609 5610 5611 5612 5613 5615 5617 5618 5619
5601 5600 5599 5598 5597 5597 5597 5597 5596 5595 5594 5594 5593 5592 5592 5591 5590 5589 5588 5588 5587 5587 5587 5587 5587 5587 5586 5586 5586 5585 5585 5585 5584 5584 5583 5582 5581 5580 5579 5578 5578 5578 5579 5580 5580 5580 5581 5582 5583 5584 5586 5586 5587 5587 5588 5589 5589 5590 5591 5592 5593 5593 5593 5593 5594 5595 5597 5598 5599 5598 5599 5599 5600 5601 5602 5602 5604 5605 5607 5608 5610 5611 5611 5613 5615 5616 5618
5597 5596 5595 5594 5594 5593 5593 5593 5592 5591 5591 5591 5590 5589 5588 5587 5586 5586 5585 5585 5584 5584 5584 5584 5584 5584 5584 5584 5584 5583 5582 5582 5582 5581 5580 5579 5578 5577 5577 5576 5576 5576 5577 5578 5577 5578 5579 5580 5581 5583 5584 5584 5584 5585 5585 5585 5586 5588 5589 5590 5591 5591 5591 5591 5592 5593 5595 5595 5596 5596 5596 5597 5598 5599 5600 5600 5601 5603 5605 5607 5608 5609 5610 5611 5612 5614 5615
5594 5593 5592 5591 5590 5590 5589 5588 5588 5588 5588 5587 5587 5586 5584 5583 5583 5582 5582 5582 5581 5581 5581 5581 5582 5582 5581 5581 5581 5581 5580 5580 5579 5579 5578 5577 5576 5575 5575 5574 5574 5575 5576 5576 5575 5576 5577 5577 5579 5581 5582 5580 5580 5581 5582 5582 5584 5586 5587 5588 5588 5588 5589 5589 5590 5591 5592 5592 5593 5594 5594 5595 5595 5597 5598 5599 5599 5601 5602 5604 5605 5607 5608 5609 5610 5611 5612
5590 5589 5588 5587 5587 5586 5586 5585 5585 5585 5584 5583 5583 5582 5581 5580 5579 5579 5579 5579 5579 5579 5579 5579 5579 5579 5579 5579 5579 5579 5578 5578 5577 5576 5575 5574 5574 5573 5572 5572 5572 5573 5574 5573 5573 5573 5574 5575 5577 5578 5576 5574 5576 5579 5580 5580 5581 5583 5584 5584 5585 5585 5585 5586 5587 5588 5589 5589 5590 5591 5593 5593 5593 5594 5595 5596 5598 5599 5600 5601 5603 5604 5604 5606 5607 5608 5609
5586 5585 5584 5583 5583 5583 5582 5582 5581 5581 5580 5580 5579 5578 5577 5576 5576 5576 5576 5576 5576 5576 5576 5576 5576 5577 5577 5576 5576 5576 5576 5575 5575 5574 5573 5572 5571 5571 5570 5570 5570 5571 5571 5570 5570 5570 5571 5572 5573 5572 5571 5572 5575 5577 5578 5578 5579 5579 5580 5580 5581 5582 5583 5583 5584 5585 5586 5586 5587 5588 5589 5590 5591 5592 5593 5594 5595 5596 5598 5599 5600 5601 5602 5603 5604 5605 5606
5582 5581 5580 5579 5579 5579 5579 5578 5578 5578 5577 5576 5575 5575 5574 5573 5573 5573 5573 5573 5573 5573 5574 5573 5573 5574 5574 5574 5573 5573 5573 5573 5572 5571 5571 5570 5569 5568 5568 5568 5568 5567 5567 5567 5567 5568 5569 5569 5569 5568 5569 5572 5574 5574 5575 5576 5576 5577 5577 5578 5578 5579 5580 5581 5581 5582 5583 5584 5584 5585 5586 5587 5588 5589 5590 5591 5593 5594 5595 5596 5597 5598 5599 5600 5601 5602 5603
5578 5577 5576 5576 5575 5575 5575 5574 5574 5574 5573 5572 5572 5571 5571 5570 5569 5569 5570 5570 5570 5570 5571 5571 5571 5571 5571 5571 5571 5570 5570 5570 5569 5568 5568 5567 5566 5566 5565 5565 5565 5564 5564 5565 5566 5566 5565 5565 5565 5567 5569 5570 5570 5571 5572 5573 5574 5574 5575 5575 5576 5576 5577 5578 5578 5579 5580 5580 5581 5582 5582 5583 5584 5585 5586 5588 5589 5591 5592 5593 5594 5595 5596 5597 5598 5599 5600
5573 5573 5573 5572 5572 5571 5570 5570 5570 5570 5569 5568 5568 5568 5568 5567 5566 5566 5567 5568 5567 5567 5567 5568 5568 5568 5568 5568 5568 5568 5567 5567 5566 5566 5565 5564 5564 5563 5562 5562 5562 5562 5562 5562 5563 5563 5562 5562 5563 5565 5566 5566 5567 5568 5569 5570 5571 5572 5572 5572 5573 5574 5574 5575 5575 5576 5577 5577 5578 5578 5579 5580 5580 5581 5582 5584 5585 5587 5588 5589 5590 5591 5592 5594 5595 5596 5596
5570 5569 5569 5568 5567 5567 5567 5566 5566 5566 5565 5564 5564 5565 5564 5563 5562 5563 5565 5565 5564 5563 5564 5565 5565 5565 5565 5564 5565 5565 5564 5564 5564 5563 5562 5562 5561 5560 5560 5559 5559 5560 5560 5560 5560 5560 5560 5560 5561 5562 5562 5563 5563 5565 5566 5567 5568 5569 5569 5570 5571 5571 5571 5572 5572 5573 5574 5574 5575 5575 5576 5576 5577 5578 5579 5580 5582 5583 5584 5585 5586 5587 5588 5589 5591 5592 5592
5566 5565 5565 5564 5563 5563 5563 5562 5562 5561 5561 5561 5561 5561 5561 5560 5560 5560 5562 5562 5561 5560 5561 5561 5562 5562 5562 5562 5562 5562 5561 5561 5561 5560 5560 5559 5558 5558 5557 5557 5557 5557 5557 5557 5557 5557 5557 5558 5558 5557 5557 5558 5560 5561 5562 5563 5564 5565 5566 5567 5568 5568 5569 5569 5570 5570 5571 5571 5572 5572 5573 5573 5574 5574 5576 5577 5578 5579 5580 5581 5582 5583 5584 5585 5586 5587 5588
5561 5561 5561 5560 5559 5559 5559 5558 5558 5557 5557 5557 5557 5557 5557 5557 5557 5557 5558 5559 5559 5557 5557 5558 5559 5559 5559 5559 5559 5559 5558 5558 5558 5557 5557 5556 5556 5555 5554 5554 5554 5554 5553 5554 5554 5554 5554 5554 5554 5554 5554 5555 5556 5557 5558 5559 5561 5562 5563 5564 5565 5566 5566 5566 5567 5567 5568 5568 5569 5569 5569 5570 5570 5571 5572 5573 5575 5576 5576 5577 5578 5579 5580 5581 5582 5583 5584
5557 5557 5557 5556 5555 5555 5555 5554 5554 5554 5554 5554 5553 5553 5554 5554 5554 5554 5555 5556 5555 5554 5554 5554 5555 5555 5555 5555 5556 5556 5555 5555 5554 5554 5553 5553 5552 5552 5551 5551 5551 5551 5551 5551 5551 5551 5551 5550 5551 5551 5552 5552 5552 5553 5554 5555 5557 5558 5559 5560 5562 5562 5563 5563 5564 5565 5565 5565 5566 5566 5566 5566 5567 5568 5569 5570 5571 5572 5573 5573 5574 5575 5576 5577 5578 5579 5580
5553 5553 5553 5552 5551 5551 5550 5550 5550 5550 5550 5549 5549 5550 5550 5551 5550 5551 5552 5552 5552 5551 5551 5551 5551 5552 5552 5552 5552 5552 5552 5552 5551 5551 5550 5549 5549 5548 5547 5548 5548 5548 5548 5548 5547 5547 5546 5546 5547 5548 5548 5548 5549 5549 5550 5551 5552 5554 5555 5556 5558 5559 5559 5560 5561 5562 5562 5562 5563 5563 5563 5563 5563 5564 5565 5567 5567 5568 5569 5570 5570 5571 5572 5572 5573 5574 5575
5549 5549 5548 5548 5547 5546 5546 5547 5547 5547 5546 5546 5546 5546 5547 5547 5547 5548 5548 5548 5548 5547 5548 5548 5548 5548 5549 5549 5549 5548 5548 5548 5548 5547 5546 5545 5545 5544 5544 5544 5544 5544 5544 5543 5543 5542 5542 5542 5542 5543 5543 5544 5544 5545 5546 5547 5548 5549 5550 5552 5553 5555 5556 5557 5558 5558 5559 5559 5560 5560 5560 5560 5560 5560 5561 5562 5563 5564 5565 5566 5566 5567 5568 5568 5569 5570 5571
5545 5544 5544 5543 5543 5543 5543 5543 5543 5543 5543 5542 5542 5542 5543 5543 5544 5544 5545 5544 5544 5544 5544 5544 5544 5544 5545 5545 5545 5545 5545 5544 5544 5544 5543 5542 5540 5540 5540 5539 5539 5539 5539 5538 5538 5538 5538 5538 5538 5538 5539 5539 5540 5540 5541 5542 5543 5544 5546 5547 5549 5550 5552 5553 5554 5555 5555 5556 5557 5557 5557 5557 5557 5557 5557 5558 5559 5560 5561 5562 5563 5563 5564 5565 5565 5566 5567